Regional Weather Roundup
Issued by NWS Memphis, TN

Home | Current Version | Previous Version | Text Only | Print | Product List | Glossary On
Versions: 1 2 3 4 5 6 7 8 9 10 11 12 13 14 15 16 17 18 19 20 21 22 23 24 25 26 27 28 29 30 31 32 33 34 35 36 37 38 39 40 41 42 43 44 45 46 47 48 49 50
000
ASUS44 KMEG 260110
RWRMEG
MEMPHIS CWA HOURLY WEATHER ROUNDUP
NATIONAL WEATHER SERVICE MEMPHIS TN
800 PM CDT SAT MAR 25 2017

...WEST TENNESSEE...

CITY           SKY/WX    TMP DP  RH WIND       PRES   REMARKS
MEMPHIS INTL   MOCLDY    64  59  83 S6        29.90R
NWS MEMPHIS      N/A     64 N/A N/A MISG        N/A
JACKSON        CLOUDY    62  58  86 S9        29.92S
SOMERVILLE     PTCLDY    63  59  88 VRB6G12   29.90S
BOLIVAR        MOCLDY    61  57  88 SE8       29.92S
SAVANNAH       CLOUDY    63  55  77 S12G20    29.96R
DYERSBURG      CLOUDY    63  57  81 S10       29.90R
PARIS          MOCLDY    59  54  82 S6        29.94R
HUNTINGDON     CLOUDY    63  57  82 S10       29.92S


...EASTERN ARKANSAS...

CITY           SKY/WX    TMP DP  RH WIND       PRES   REMARKS
JONESBORO      MOCLDY    62  51  67 W7        29.88R
WEST MEMPHIS   MOCLDY    64  61  90 S8        29.89R
BATESVILLE     CLEAR     57  46  67 SW8       29.91R
NEWPORT        CLOUDY    62  51  67 W9        29.89R
WALNUT RIDGE   CLOUDY    63  48  59 SW12      29.87S
BLYTHEVILLE    LGT RAIN  61  58  90 S10       29.90R
SEARCY         CLOUDY    59  50  72 W7        29.93
STUTTGART      CLOUDY    64  48  55 NW8       29.91R
PINE BLUFF     CLEAR     66  50  56 SW5       29.91R
MONTICELLO       N/A     66  50  56 MISG      29.91R


...NORTH MISSISSIPPI...

CITY           SKY/WX    TMP DP  RH WIND       PRES   REMARKS
TUPELO         CLOUDY    60  56  86 SE5       29.96R
OXFORD         CLOUDY    59  57  94 SE7       29.95R
BATESVILLE     CLEAR     63  59  87 SE6       29.93R
OLIVE BRANCH   MOCLDY   N/A N/A N/A S12       29.89S
TUNICA         PTCLDY    63  59  88 S8        29.91R
CLARKSDALE       N/A     66  64  94 SE3       29.90R
GREENWOOD      CLEAR     63  59  87 SE10      29.92R
COLUMBUS       CLOUDY    61  59  94 SE13      29.97R
STARKVILLE     CLOUDY    59  59 100 S6        29.99R
GOLDEN TRIANGL MOCLDY    61  54  77 SE8       29.94R


...SOUTHEAST MISSOURI...

CITY           SKY/WX    TMP DP  RH WIND       PRES   REMARKS
KENNETT        CLOUDY    61  54  77 SW8       29.87R
MALDEN         PTCLDY    63  50  63 SW6       29.88S
WEST PLAINS    CLOUDY    51  48  89 W10       29.90R
POPLAR BLUFF   MOCLDY    62  53  72 SW7       29.86R
CAPE GIRARDEAU CLOUDY    61  56  83 S14       29.86R


...NORTHWEST ALABAMA...

CITY           SKY/WX    TMP DP  RH WIND       PRES   REMARKS
MUSCLE SHOALS  CLOUDY    61  56  83 S10       30.01R


...MIDDLE TENNESSEE...

CITY           SKY/WX    TMP DP  RH WIND       PRES   REMARKS
NASHVILLE      CLOUDY    64  55  72 S13G23    29.99F
CLARKSVILLE    CLOUDY    67  52  58 S8        29.95R
COLUMBIA       CLEAR     63  63 100 S12       29.97R


...WESTERN KENTUCKY...

CITY           SKY/WX    TMP DP  RH WIND       PRES   REMARKS
PADUCAH        CLOUDY    64  55  72 S9        29.89R
FORT CAMPBELL  CLOUDY    67  53  59 S8        29.94R


...CENTRAL ARKANSAS...

CITY           SKY/WX    TMP DP  RH WIND       PRES   REMARKS
LITTLE ROCK    PTCLDY    57  51  80 N10       29.92R


SKY/WX REPORTED AS FAIR MEANS FEW OR NO CLOUDS BELOW
12 THOUSAND FEET.




USA.gov is the U.S. government's official web portal to all federal, state and local government web resources and services.